TimeCST,TemperatureF,Dew PointF,Humidity,Sea Level PressureIn,VisibilityMPH,Wind Direction,Wind SpeedMPH,Gust SpeedMPH,PrecipitationIn,Events,Conditions,WindDirDegrees,DateUTC
12:53 AM,54.0,39.9,59,30.35,10.0,NNE,12.7,-,N/A,,Overcast,20,2013-02-16 06:53:00
1:53 AM,53.1,39.0,59,30.37,10.0,North,12.7,-,N/A,,Overcast,360,2013-02-16 07:53:00
2:53 AM,51.1,37.9,61,30.37,10.0,North,17.3,24.2,N/A,,Overcast,10,2013-02-16 08:53:00
3:53 AM,50.0,32.0,50,30.38,10.0,North,18.4,24.2,N/A,,Overcast,10,2013-02-16 09:53:00
4:53 AM,48.0,33.1,56,30.40,10.0,North,11.5,-,N/A,,Clear,350,2013-02-16 10:53:00
5:53 AM,46.9,30.0,52,30.41,10.0,North,10.4,-,N/A,,Clear,360,2013-02-16 11:53:00
6:53 AM,46.0,30.9,56,30.43,10.0,North,15.0,-,N/A,,Clear,360,2013-02-16 12:53:00
7:53 AM,46.9,30.0,52,30.46,10.0,North,15.0,-,N/A,,Clear,360,2013-02-16 13:53:00
8:53 AM,50.0,28.9,44,30.48,10.0,NNE,11.5,-,N/A,,Clear,20,2013-02-16 14:53:00
9:53 AM,54.0,24.1,31,30.48,10.0,North,11.5,-,N/A,,Clear,10,2013-02-16 15:53:00
10:53 AM,55.9,25.0,30,30.48,10.0,NNE,9.2,-,N/A,,Clear,30,2013-02-16 16:53:00
11:53 AM,57.9,24.1,27,30.46,10.0,Variable,5.8,-,N/A,,Clear,0,2013-02-16 17:53:00
12:53 PM,61.0,26.1,26,30.41,10.0,Variable,4.6,-,N/A,,Clear,0,2013-02-16 18:53:00
1:53 PM,64.0,25.0,23,30.37,10.0,NNW,6.9,-,N/A,,Clear,330,2013-02-16 19:53:00
2:53 PM,62.1,28.9,29,30.35,10.0,SE,8.1,-,N/A,,Clear,130,2013-02-16 20:53:00
3:53 PM,62.1,33.1,34,30.32,10.0,ESE,9.2,-,N/A,,Clear,120,2013-02-16 21:53:00
4:53 PM,60.1,36.0,41,30.31,10.0,SSE,11.5,-,N/A,,Clear,160,2013-02-16 22:53:00
5:53 PM,57.0,37.0,47,30.30,10.0,South,6.9,-,N/A,,Clear,170,2013-02-16 23:53:00
6:53 PM,55.0,37.9,53,30.30,10.0,SSE,4.6,-,N/A,,Clear,160,2013-02-17 00:53:00
7:53 PM,53.1,39.0,59,30.31,10.0,South,4.6,-,N/A,,Clear,180,2013-02-17 01:53:00
8:53 PM,52.0,39.0,61,30.31,10.0,South,4.6,-,N/A,,Clear,170,2013-02-17 02:53:00
9:53 PM,51.1,39.0,63,30.32,10.0,South,4.6,-,N/A,,Clear,170,2013-02-17 03:53:00
10:53 PM,54.0,41.0,62,30.31,10.0,South,4.6,-,N/A,,Clear,180,2013-02-17 04:53:00
11:53 PM,52.0,42.1,69,30.29,10.0,South,4.6,-,N/A,,Clear,180,2013-02-17 05:53:00